Ypsilanti, MI

8:05 AM EDT on August 22, 2017 (GMT -0400)
Willow Run

Weather History for KYIP - January, 2014

Change the Weather History Date:

Friday, January 17, 2014

  Actual Average Record
Temperature  
Mean Temperature 26 °F -  
Max Temperature 33 °F 31 °F 55 °F (1990)
Min Temperature 19 °F 17 °F -19 °F (1982)
Degree Days  
Heating Degree Days 39    
Moisture  
Dew Point 19 °F    
Average Humidity 70    
Maximum Humidity 80    
Minimum Humidity 60    
Precipitation  
Precipitation 0.03 in - - ()
Sea Level Pressure  
Sea Level Pressure 29.77 in    
Wind  
Wind Speed 11 mph (SW)    
Max Wind Speed 20 mph    
Max Gust Speed 25 mph    
Visibility 8 miles    
Events Snow    
Averages and records for this station are not official NWS values.
T = Trace of Precipitation, MM = Missing Value Source: NWS Daily Summary

Daily Weather History Graph

Daily Weather History Graph

Search for Another Location

Airport or City:

Trip Planner

Search our weather history database for the weather conditions in past years. The results will help you decide how hot, cold, wet, or windy it might be!

Date:

Astronomy

Jan. 17, 2014 Rise Set
Actual Time 7:59 AM EST 5:29 PM EST
Civil Twilight 7:28 AM EST 6:00 PM EST
Nautical Twilight 6:54 AM EST 6:34 PM EST
Astronomical Twilight 6:20 AM EST 7:08 PM EST
Moon 7:17 PM EST (1/17) 8:24 AM EST (1/17)
Length of Visible Light 10h 31m
Length of Day
9h 30m
Full, 98% of the Moon is Illuminated
Jan 17
Full
Jan 24
Last Quarter
Jan 30
New
Feb 6
First Quarter
Feb 14
Full

Hourly Weather History & Observations

Time (EST) Temp. Windchill Dew Point Humidity Pressure Visibility Wind Dir Wind Speed Gust Speed Precip Events Conditions
12:12 AM 30.2 °F 20.8 °F 24.8 °F 80% 29.63 in 4.0 mi SSW 11.5 mph - 0.00 in Snow Light Snow
12:49 AM 30.2 °F 21.3 °F 24.8 °F 80% 29.62 in 2.0 mi SSW 10.4 mph - 0.00 in Snow Light Snow
12:53 AM 30.9 °F 22.2 °F 25.0 °F 79% 29.63 in 1.5 mi SSW 10.4 mph - 0.00 in Snow Light Snow
1:07 AM 30.2 °F 21.3 °F 24.8 °F 80% 29.61 in 1.2 mi SSW 10.4 mph - 0.00 in Snow Light Snow
1:21 AM 30.2 °F 21.3 °F 24.8 °F 80% 29.61 in 1.2 mi SSW 10.4 mph - 0.00 in Snow Light Snow
1:46 AM 30.2 °F 20.8 °F 24.8 °F 80% 29.62 in 2.5 mi SSW 11.5 mph - 0.00 in Snow Light Snow
1:53 AM 30.9 °F 20.7 °F 25.0 °F 79% 29.64 in 4.0 mi SSW 13.8 mph - 0.00 in Snow Light Snow
2:53 AM 32.0 °F 22.1 °F 25.0 °F 75% 29.65 in 9.0 mi SSW 13.8 mph - 0.00 in   Overcast
3:53 AM 32.0 °F 20.8 °F 24.1 °F 73% 29.67 in 10.0 mi SSW 17.3 mph - N/A   Overcast
4:53 AM 30.9 °F 21.7 °F 23.0 °F 72% 29.68 in 8.0 mi SW 11.5 mph - 0.00 in Snow Light Snow
5:53 AM 30.0 °F 17.5 °F 21.0 °F 69% 29.71 in 10.0 mi WSW 19.6 mph 25.3 mph N/A   Overcast
6:08 AM 28.4 °F 15.4 °F 17.6 °F 64% 29.70 in 10.0 mi West 19.6 mph - N/A   Overcast
6:53 AM 26.1 °F 16.8 °F 17.1 °F 69% 29.74 in 10.0 mi SW 9.2 mph - N/A   Scattered Clouds
8:53 AM 23.0 °F 14.7 °F 15.1 °F 72% 29.77 in 10.0 mi SSW 6.9 mph - N/A   Mostly Cloudy
9:53 AM 25.0 °F 19.3 °F 17.1 °F 72% 29.79 in 10.0 mi SSW 4.6 mph - N/A   Overcast
10:49 AM 26.6 °F 19.1 °F 17.6 °F 69% 29.78 in 10.0 mi SSW 6.9 mph - N/A   Overcast
10:53 AM 27.0 °F 21.6 °F 18.0 °F 69% 29.80 in 10.0 mi SSW 4.6 mph - N/A   Overcast
11:11 AM 26.6 °F 21.2 °F 17.6 °F 69% 29.78 in 10.0 mi SSW 4.6 mph - N/A   Overcast
11:40 AM 26.6 °F 21.2 °F 19.4 °F 74% 29.78 in 10.0 mi SSW 4.6 mph - N/A   Overcast
11:53 AM 28.0 °F 21.7 °F 19.0 °F 69% 29.80 in 10.0 mi SSW 5.8 mph - N/A   Overcast
12:53 PM 28.9 °F - 19.9 °F 69% 29.78 in 10.0 mi Calm Calm - N/A   Overcast
1:19 PM 30.2 °F - 21.2 °F 69% 29.76 in 10.0 mi Calm Calm - N/A   Overcast
1:53 PM 30.9 °F 27.5 °F 19.9 °F 64% 29.77 in 10.0 mi SW 3.5 mph - 0.01 in   Overcast
2:53 PM 32.0 °F - 21.0 °F 64% 29.77 in 10.0 mi Calm Calm - 0.02 in   Overcast
3:28 PM 33.8 °F 26.4 °F 21.2 °F 60% 29.76 in 10.0 mi WNW 9.2 mph - N/A   Overcast
3:53 PM 33.1 °F 25.5 °F 21.0 °F 61% 29.79 in 10.0 mi WNW 9.2 mph - N/A   Overcast
4:53 PM 32.0 °F 24.2 °F 19.9 °F 61% 29.81 in 10.0 mi West 9.2 mph - N/A   Overcast
5:53 PM 30.0 °F 19.5 °F 19.0 °F 64% 29.84 in 10.0 mi WNW 13.8 mph - N/A   Overcast
6:53 PM 28.0 °F 17.5 °F 18.0 °F 66% 29.87 in 10.0 mi WNW 12.7 mph - 0.00 in   Overcast
7:53 PM 27.0 °F 16.7 °F 17.1 °F 66% 29.89 in 10.0 mi WNW 11.5 mph - N/A   Overcast
8:53 PM 26.1 °F 15.6 °F 16.0 °F 66% 29.90 in 10.0 mi West 11.5 mph - 0.00 in   Overcast
9:53 PM 24.1 °F 11.5 °F 15.1 °F 69% 29.91 in 5.0 mi WSW 15.0 mph - 0.00 in Snow Light Snow
10:35 PM 21.2 °F 7.8 °F 12.2 °F 68% 29.91 in 9.0 mi WSW 15.0 mph - 0.00 in   Overcast
10:53 PM 21.0 °F 7.1 °F 10.9 °F 65% 29.94 in 10.0 mi WSW 16.1 mph - 0.00 in   Overcast
11:29 PM 19.4 °F 4.1 °F 8.6 °F 63% 29.91 in 10.0 mi West 18.4 mph - N/A   Overcast
11:53 PM 19.9 °F 7.9 °F 9.0 °F 62% 29.94 in 10.0 mi WSW 11.5 mph - N/A   Overcast